Location: Newark
(32.8014°N, 52.8711°E)
Time: 07:22:42
(UTC+00:00)

Envisat - Pass Details

Date: 30 January 2020
Orbit: 764 x 766 km, 98.1° (Epoch: 20 February)

Event Time Altitude Azimuth Distance (km) Brightness Sun altitude
Rises 14:18:00 0° 164° (SSE) 3,216 6.3 -4.7°
Reaches altitude 10° 14:20:18 10° 163° (SSE) 2,294 5.5 -5.2°
Maximum altitude 14:25:21 81° 76° (ENE) 778 3.0 -6.2°
Drops below altitude 10° 14:30:27 10° 350° (N) 2,306 5.4 -7.2°
Sets 14:32:45 0° 350° (N) 3,236 6.2 -7.7°
